, LA

(GMT )
East Cameron 278

Weather History for KEHC - January, 2014

Change the Weather History Date:

Friday, January 17, 2014

  Actual Average Record
Temperature  
Mean Temperature 62 °F -  
Max Temperature 68 °F - - ()
Min Temperature 57 °F - - ()
Degree Days  
Heating Degree Days 2    
Growing Degree Days 12 (Base 50)    
Moisture  
Dew Point 37 °F    
Average Humidity 43    
Maximum Humidity 72    
Minimum Humidity 27    
Precipitation  
Precipitation 0.00 in - - ()
Sea Level Pressure  
Sea Level Pressure 30.23 in    
Wind  
Wind Speed 13 mph (NNW)    
Max Wind Speed 24 mph    
Max Gust Speed 22 mph    
Visibility 10 miles    
Events      
Averages and records for this station are not official NWS values.
T = Trace of Precipitation, MM = Missing Value Source: NWS Daily Summary

Daily Weather History Graph

Daily Weather History Graph

Search for Another Location

Airport or City:

Trip Planner

Search our weather history database for the weather conditions in past years. The results will help you decide how hot, cold, wet, or windy it might be!

Date:

Astronomy

Jan. 17, 2014 Rise Set
Actual Time 7:04 AM CST 5:38 PM CST
Civil Twilight 6:39 AM CST 6:04 PM CST
Nautical Twilight 6:10 AM CST 6:33 PM CST
Astronomical Twilight 5:42 AM CST 7:01 PM CST
Moon 7:13 PM CST (1/17) 7:43 AM CST (1/17)
Length of Visible Light 11h 24m
Length of Day
10h 34m
Full, 98% of the Moon is Illuminated
Jan 17
Full
Jan 23
Last Quarter
Jan 30
New
Feb 6
First Quarter
Feb 14
Full

Hourly Weather History & Observations

Time (CST) Temp. Dew Point Humidity Pressure Visibility Wind Dir Wind Speed Gust Speed Precip Events Conditions
12:15 AM 66.2 °F 50.0 °F 56% 30.15 in 10.0 mi SW 12.7 mph - N/A   Scattered Clouds
12:35 AM 68.0 °F 51.8 °F 56% 30.15 in 10.0 mi SW 12.7 mph - N/A   Mostly Cloudy
12:55 AM 68.0 °F 51.8 °F 56% 30.15 in 10.0 mi SW 12.7 mph - N/A   Mostly Cloudy
1:15 AM 66.2 °F 51.8 °F 60% 30.15 in 8.0 mi SW 10.4 mph - N/A   Overcast
1:35 AM 66.2 °F 51.8 °F 60% 30.15 in 10.0 mi WSW 10.4 mph - N/A   Mostly Cloudy
1:55 AM 66.2 °F 53.6 °F 64% 30.15 in 10.0 mi West 10.4 mph - N/A   Mostly Cloudy
2:15 AM 64.4 °F 51.8 °F 64% 30.14 in 10.0 mi WNW 10.4 mph - N/A   Mostly Cloudy
2:35 AM 64.4 °F 51.8 °F 64% 30.14 in 10.0 mi WNW 9.2 mph - N/A   Partly Cloudy
2:55 AM 64.4 °F 51.8 °F 64% 30.14 in 10.0 mi WNW 9.2 mph - N/A   Clear
3:15 AM 64.4 °F 51.8 °F 64% 30.13 in 10.0 mi WNW 8.1 mph - N/A   Clear
3:35 AM 64.4 °F 51.8 °F 64% 30.13 in 10.0 mi NW 9.2 mph - N/A   Partly Cloudy
3:55 AM 64.4 °F 51.8 °F 64% 30.13 in 10.0 mi NW 10.4 mph - N/A   Partly Cloudy
4:15 AM 64.4 °F 53.6 °F 68% 30.13 in 10.0 mi NNW 8.1 mph - N/A   Clear
4:35 AM 64.4 °F 53.6 °F 68% 30.14 in 10.0 mi NW 9.2 mph - N/A   Mostly Cloudy
4:55 AM 64.4 °F 53.6 °F 68% 30.15 in 10.0 mi NNW 11.5 mph - N/A   Mostly Cloudy
5:15 AM 64.4 °F 53.6 °F 68% 30.15 in 10.0 mi NNW 13.8 mph - N/A   Mostly Cloudy
5:35 AM 62.6 °F 53.6 °F 72% 30.16 in 10.0 mi North 15.0 mph - N/A   Unknown
5:55 AM 62.6 °F 48.2 °F 59% 30.16 in 10.0 mi North 16.1 mph - N/A   Mostly Cloudy
6:15 AM 62.6 °F 46.4 °F 55% 30.17 in 10.0 mi North 20.7 mph - N/A   Unknown
6:35 AM 62.6 °F 39.2 °F 42% 30.18 in 10.0 mi North 21.9 mph - N/A   Unknown
6:55 AM 62.6 °F 39.2 °F 42% 30.19 in 10.0 mi North 21.9 mph - N/A   Mostly Cloudy
7:15 AM 60.8 °F 39.2 °F 45% 30.20 in 10.0 mi NNE 24.2 mph - N/A   Scattered Clouds
7:35 AM 60.8 °F 37.4 °F 42% 30.21 in 10.0 mi NNE 23.0 mph - N/A   Partly Cloudy
7:55 AM 60.8 °F 35.6 °F 39% 30.22 in 10.0 mi NNE 21.9 mph - N/A   Clear
8:15 AM 60.8 °F 35.6 °F 39% 30.24 in 10.0 mi NNE 23.0 mph - N/A   Clear
8:35 AM 60.8 °F 30.2 °F 31% 30.24 in 10.0 mi NNE 23.0 mph - N/A   Clear
8:55 AM 59.0 °F 32.0 °F 36% 30.26 in 10.0 mi NNE 20.7 mph - N/A   Partly Cloudy
9:15 AM 59.0 °F 30.2 °F 34% 30.27 in 10.0 mi NNE 21.9 mph - N/A   Unknown
9:35 AM 59.0 °F 28.4 °F 31% 30.28 in 10.0 mi NNE 18.4 mph - N/A   Unknown
9:55 AM 59.0 °F 32.0 °F 36% 30.29 in 10.0 mi NE 15.0 mph 20.7 mph N/A   Clear
10:15 AM 59.0 °F 30.2 °F 34% 30.29 in 10.0 mi NNE 15.0 mph - N/A   Clear
10:35 AM 59.0 °F 33.8 °F 39% 30.29 in 10.0 mi NNE 16.1 mph 21.9 mph N/A   Clear
10:55 AM 59.0 °F 28.4 °F 31% 30.29 in 10.0 mi NNE 15.0 mph - N/A   Clear
11:15 AM 59.0 °F 30.2 °F 34% 30.28 in 10.0 mi NNE 13.8 mph - N/A   Clear
11:35 AM 59.0 °F 32.0 °F 36% 30.27 in 10.0 mi NNE 11.5 mph - N/A   Clear
11:55 AM 59.0 °F 30.2 °F 34% 30.26 in 10.0 mi NNE 12.7 mph - N/A   Clear
12:15 PM 59.0 °F 30.2 °F 34% 30.26 in 10.0 mi NNE 13.8 mph - N/A   Partly Cloudy
12:35 PM 59.0 °F 32.0 °F 36% 30.25 in 10.0 mi North 12.7 mph - N/A   Unknown
12:55 PM 59.0 °F 26.6 °F 29% 30.24 in 10.0 mi North 11.5 mph 18.4 mph N/A   Unknown
1:15 PM 59.0 °F 26.6 °F 29% 30.24 in 10.0 mi North 13.8 mph - N/A   Unknown
1:35 PM 59.0 °F 30.2 °F 34% 30.24 in 10.0 mi North 12.7 mph - N/A   Unknown
1:55 PM 59.0 °F 32.0 °F 36% 30.24 in 10.0 mi North 10.4 mph - N/A   Unknown
2:15 PM 59.0 °F 33.8 °F 39% 30.24 in - North 9.2 mph - N/A   Unknown
2:35 PM 59.0 °F 35.6 °F 42% 30.24 in 10.0 mi North 9.2 mph - N/A   Unknown
2:55 PM 59.0 °F 26.6 °F 29% 30.23 in 10.0 mi NNW 8.1 mph - N/A   Unknown
3:15 PM 59.0 °F 30.2 °F 34% 30.23 in 10.0 mi NNW 9.2 mph - N/A   Unknown
3:35 PM 59.0 °F 28.4 °F 31% 30.23 in 10.0 mi North 11.5 mph - N/A   Clear
3:55 PM 59.0 °F 24.8 °F 27% 30.24 in 9.0 mi North 12.7 mph - N/A   Clear
4:15 PM 59.0 °F 28.4 °F 31% 30.24 in 9.0 mi North 12.7 mph - N/A   Unknown
4:35 PM 59.0 °F 28.4 °F 31% 30.25 in 10.0 mi NNW 8.1 mph 15.0 mph N/A   Unknown
4:55 PM 57.2 °F 30.2 °F 36% 30.25 in 9.0 mi NNW 10.4 mph - N/A   Unknown
5:15 PM 57.2 °F 30.2 °F 36% 30.25 in 9.0 mi NNW 9.2 mph - N/A   Unknown
5:30 PM 57.2 °F 32.0 °F 38% 30.24 in 9.0 mi NNW 10.4 mph - N/A   Unknown
5:55 PM 57.2 °F 32.0 °F 38% 30.25 in 10.0 mi NNW 9.2 mph - N/A   Unknown
6:15 PM 57.2 °F 33.8 °F 41% 30.26 in 10.0 mi NNW 11.5 mph - N/A   Unknown
6:35 PM 57.2 °F 33.8 °F 41% 30.26 in 10.0 mi NNW 9.2 mph - N/A   Unknown
6:55 PM 57.2 °F 35.6 °F 44% 30.27 in 10.0 mi NNW 10.4 mph - N/A   Unknown
7:15 PM 57.2 °F 35.6 °F 44% 30.27 in 10.0 mi NNW 10.4 mph - N/A   Unknown
7:35 PM 57.2 °F 32.0 °F 38% 30.27 in 10.0 mi NW 11.5 mph - N/A   Unknown
7:55 PM 59.0 °F 28.4 °F 31% 30.27 in 10.0 mi NNW 9.2 mph - N/A   Unknown
8:15 PM 59.0 °F 24.8 °F 27% 30.28 in 10.0 mi NNW 8.1 mph - N/A   Unknown
8:35 PM 57.2 °F 30.2 °F 36% 30.29 in 10.0 mi NNW 9.2 mph - N/A   Unknown
8:55 PM 59.0 °F 30.2 °F 34% 30.29 in - NNW 9.2 mph - N/A   Unknown
9:15 PM 59.0 °F 30.2 °F 34% 30.29 in 10.0 mi NNW 9.2 mph 15.0 mph N/A   Unknown
9:35 PM 59.0 °F 32.0 °F 36% 30.29 in 10.0 mi NNW 9.2 mph - N/A   Unknown
9:55 PM 59.0 °F 32.0 °F 36% 30.29 in 10.0 mi North 10.4 mph - N/A   Unknown
10:15 PM 57.2 °F 32.0 °F 38% 30.29 in 10.0 mi North 11.5 mph - N/A   Unknown
10:35 PM 57.2 °F 32.0 °F 38% 30.29 in 10.0 mi North 9.2 mph - N/A   Unknown
10:55 PM 57.2 °F 33.8 °F 41% 30.28 in 10.0 mi North 10.4 mph - N/A   Unknown
11:15 PM 57.2 °F 37.4 °F 48% 30.28 in 10.0 mi North 11.5 mph - N/A   Unknown
11:35 PM 57.2 °F 35.6 °F 44% 30.27 in 10.0 mi NNE 10.4 mph - N/A   Unknown
11:55 PM 57.2 °F 33.8 °F 41% 30.26 in 10.0 mi North 9.2 mph - N/A   Unknown